Time,TemperatureF,DewpointF,PressureIn,WindDirection,WindDirectionDegrees,WindSpeedMPH,WindSpeedGustMPH,Humidity,HourlyPrecipIn,Conditions,Clouds,dailyrainin,SoftwareType,DateUTC
2013-02-08 00:01:00,31.0,30.0,29.98,NNW,347,3.0,7.0,96,0.00,,,0.73,,2013-02-08 06:01:00,
2013-02-08 00:11:00,31.0,30.0,29.98,NNW,347,3.0,7.0,96,0.00,,,0.73,,2013-02-08 06:11:00,
2013-02-08 00:21:00,31.0,30.0,29.99,NNW,348,3.0,7.0,95,0.00,,,0.73,,2013-02-08 06:21:00,
2013-02-08 00:31:00,31.0,30.0,30.00,NNW,348,3.0,8.0,95,0.00,,,0.73,,2013-02-08 06:31:00,
2013-02-08 00:42:00,31.0,30.0,30.00,NNW,348,3.0,8.0,95,0.00,,,0.73,,2013-02-08 06:42:00,
2013-02-08 00:52:00,31.0,30.0,30.01,North,355,3.0,7.0,95,0.00,,,0.73,,2013-02-08 06:52:00,
2013-02-08 01:01:00,31.0,30.0,30.01,NNW,342,3.0,11.0,95,0.00,,,0.73,,2013-02-08 07:01:00,
2013-02-08 01:11:00,31.0,30.0,30.01,NNW,342,3.0,11.0,95,0.00,,,0.73,,2013-02-08 07:11:00,
2013-02-08 01:21:00,30.0,28.0,30.01,North,11,4.0,11.0,94,0.00,,,0.73,,2013-02-08 07:21:00,
2013-02-08 01:32:00,30.0,28.0,30.02,NNW,341,4.0,9.0,94,0.00,,,0.73,,2013-02-08 07:32:00,
2013-02-08 01:42:00,29.0,27.0,30.03,NNW,346,4.0,9.0,93,0.00,,,0.73,,2013-02-08 07:42:00,
2013-02-08 01:52:00,29.0,27.0,30.03,NNW,346,4.0,9.0,93,0.00,,,0.73,,2013-02-08 07:52:00,
2013-02-08 02:01:00,29.0,27.0,30.04,NNW,339,3.0,8.0,94,0.00,,,0.73,,2013-02-08 08:01:00,
2013-02-08 02:11:00,29.0,27.0,30.04,NNW,339,3.0,8.0,94,0.00,,,0.73,,2013-02-08 08:11:00,
2013-02-08 02:21:00,29.0,27.0,30.06,NNE,17,5.0,9.0,93,0.00,,,0.73,,2013-02-08 08:21:00,
2013-02-08 02:32:00,28.0,26.0,30.06,NNW,333,5.0,11.0,92,0.00,,,0.73,,2013-02-08 08:32:00,
2013-02-08 02:42:00,28.0,26.0,30.06,NNW,333,5.0,11.0,92,0.00,,,0.73,,2013-02-08 08:42:00,
2013-02-08 02:52:00,27.0,25.0,30.08,North,351,4.0,9.0,92,0.00,,,0.73,,2013-02-08 08:52:00,
2013-02-08 03:03:00,27.0,25.0,30.08,North,349,4.0,9.0,93,0.00,,,0.73,,2013-02-08 09:03:00,
2013-02-08 03:11:00,27.0,25.0,30.08,North,349,4.0,9.0,93,0.00,,,0.73,,2013-02-08 09:11:00,
2013-02-08 03:21:00,27.0,25.0,30.09,North,355,4.0,8.0,92,0.00,,,0.73,,2013-02-08 09:21:00,
2013-02-08 03:32:00,26.0,24.0,30.09,North,9,3.0,8.0,92,0.00,,,0.73,,2013-02-08 09:32:00,
2013-02-08 03:42:00,26.0,24.0,30.09,North,9,3.0,8.0,92,0.00,,,0.73,,2013-02-08 09:42:00,
2013-02-08 03:52:00,26.0,24.0,30.10,NNW,347,4.0,9.0,92,0.00,,,0.73,,2013-02-08 09:52:00,
2013-02-08 04:01:00,25.0,23.0,30.11,North,360,5.0,10.0,92,0.00,,,0.73,,2013-02-08 10:01:00,
2013-02-08 04:11:00,25.0,23.0,30.11,North,360,5.0,10.0,92,0.00,,,0.73,,2013-02-08 10:11:00,
2013-02-08 04:22:00,25.0,23.0,30.11,North,355,4.0,9.0,92,0.00,,,0.73,,2013-02-08 10:22:00,
2013-02-08 04:31:00,25.0,23.0,30.12,North,9,3.0,9.0,92,0.00,,,0.73,,2013-02-08 10:31:00,
2013-02-08 04:42:00,25.0,23.0,30.12,North,9,3.0,9.0,92,0.00,,,0.73,,2013-02-08 10:42:00,
2013-02-08 04:52:00,24.0,22.0,30.13,North,355,3.0,8.0,92,0.00,,,0.73,,2013-02-08 10:52:00,
2013-02-08 05:01:00,24.0,22.0,30.14,North,355,3.0,8.0,91,0.00,,,0.73,,2013-02-08 11:01:00,
2013-02-08 05:11:00,24.0,22.0,30.14,North,355,3.0,8.0,91,0.00,,,0.73,,2013-02-08 11:11:00,
2013-02-08 05:21:00,24.0,22.0,30.14,North,350,3.0,6.0,92,0.00,,,0.73,,2013-02-08 11:21:00,
2013-02-08 05:32:00,24.0,22.0,30.16,North,355,3.0,9.0,91,0.00,,,0.73,,2013-02-08 11:32:00,
2013-02-08 05:42:00,24.0,22.0,30.16,North,355,3.0,9.0,91,0.00,,,0.73,,2013-02-08 11:42:00,
2013-02-08 05:52:00,24.0,22.0,30.17,North,355,3.0,8.0,91,0.00,,,0.73,,2013-02-08 11:52:00,
2013-02-08 06:02:00,24.0,22.0,30.18,North,360,4.0,10.0,90,0.00,,,0.73,,2013-02-08 12:02:00,
2013-02-08 06:11:00,24.0,22.0,30.18,North,360,4.0,10.0,90,0.00,,,0.73,,2013-02-08 12:11:00,
2013-02-08 06:22:00,24.0,22.0,30.19,NNE,19,4.0,10.0,90,0.00,,,0.73,,2013-02-08 12:22:00,
2013-02-08 06:33:00,24.0,22.0,30.20,NNE,14,5.0,11.0,91,0.00,,,0.73,,2013-02-08 12:33:00,
2013-02-08 06:42:00,24.0,22.0,30.20,NNE,14,5.0,11.0,91,0.00,,,0.73,,2013-02-08 12:42:00,
2013-02-08 06:52:00,24.0,22.0,30.20,North,5,3.0,10.0,91,0.00,,,0.73,,2013-02-08 12:52:00,
2013-02-08 07:01:00,24.0,22.0,30.21,NNW,343,3.0,9.0,91,0.00,,,0.71,,2013-02-08 13:01:00,
2013-02-08 07:11:00,24.0,22.0,30.21,NNW,343,3.0,9.0,91,0.00,,,0.71,,2013-02-08 13:11:00,
2013-02-08 07:22:00,25.0,23.0,30.23,NNW,346,5.0,9.0,91,0.00,,,0.71,,2013-02-08 13:22:00,
2013-02-08 07:32:00,25.0,23.0,30.23,NNW,346,4.0,9.0,91,0.00,,,0.71,,2013-02-08 13:32:00,
2013-02-08 07:42:00,25.0,23.0,30.23,NNW,346,4.0,9.0,91,0.00,,,0.71,,2013-02-08 13:42:00,
2013-02-08 07:52:00,25.0,23.0,30.24,North,349,3.0,6.0,91,0.00,,,0.71,,2013-02-08 13:52:00,
2013-02-08 08:02:00,25.0,23.0,30.25,North,5,4.0,8.0,91,0.00,,,0.65,,2013-02-08 14:02:00,
2013-02-08 08:11:00,25.0,23.0,30.25,North,5,4.0,8.0,91,0.00,,,0.65,,2013-02-08 14:11:00,
2013-02-08 08:22:00,25.0,23.0,30.26,NNE,15,3.0,9.0,91,0.00,,,0.65,,2013-02-08 14:22:00,
2013-02-08 08:32:00,25.0,22.0,30.27,North,5,3.0,8.0,90,0.00,,,0.65,,2013-02-08 14:32:00,
2013-02-08 08:42:00,25.0,22.0,30.27,North,5,3.0,8.0,90,0.00,,,0.65,,2013-02-08 14:42:00,
2013-02-08 08:52:00,26.0,23.0,30.28,North,355,4.0,7.0,90,0.00,,,0.65,,2013-02-08 14:52:00,
2013-02-08 09:02:00,26.0,23.0,30.28,NNW,344,3.0,12.0,90,0.00,,,0.61,,2013-02-08 15:02:00,
2013-02-08 09:11:00,26.0,23.0,30.28,NNW,344,3.0,12.0,90,0.00,,,0.61,,2013-02-08 15:11:00,
2013-02-08 09:22:00,26.0,23.0,30.29,NNE,17,2.0,12.0,90,0.00,,,0.61,,2013-02-08 15:22:00,
2013-02-08 09:32:00,26.0,23.0,30.29,NNW,343,3.0,9.0,90,0.00,,,0.61,,2013-02-08 15:32:00,
2013-02-08 09:42:00,26.0,23.0,30.29,NNW,343,3.0,9.0,90,0.00,,,0.61,,2013-02-08 15:42:00,
2013-02-08 09:52:00,26.0,23.0,30.30,NNW,348,4.0,7.0,90,0.00,,,0.61,,2013-02-08 15:52:00,
2013-02-08 10:01:00,27.0,24.0,30.31,NNE,12,3.0,8.0,89,0.00,,,0.57,,2013-02-08 16:01:00,
2013-02-08 10:11:00,27.0,24.0,30.31,NNE,12,3.0,8.0,89,0.00,,,0.57,,2013-02-08 16:11:00,
2013-02-08 10:22:00,27.0,24.0,30.31,NNW,327,4.0,9.0,89,0.00,,,0.57,,2013-02-08 16:22:00,
2013-02-08 10:32:00,28.0,25.0,30.31,North,360,3.0,9.0,88,0.00,,,0.57,,2013-02-08 16:32:00,
2013-02-08 10:42:00,28.0,25.0,30.31,North,360,3.0,9.0,88,0.00,,,0.57,,2013-02-08 16:42:00,
2013-02-08 10:52:00,28.0,25.0,30.32,NNW,347,4.0,8.0,88,0.00,,,0.57,,2013-02-08 16:52:00,
2013-02-08 11:03:00,28.0,25.0,30.31,North,5,3.0,10.0,89,0.00,,,0.53,,2013-02-08 17:03:00,
2013-02-08 11:12:00,28.0,25.0,30.31,North,5,3.0,10.0,89,0.00,,,0.53,,2013-02-08 17:12:00,
2013-02-08 11:22:00,28.0,25.0,30.32,NNW,344,3.0,6.0,89,0.00,,,0.53,,2013-02-08 17:22:00,
2013-02-08 11:32:00,28.0,25.0,30.32,NNE,15,4.0,8.0,88,0.00,,,0.53,,2013-02-08 17:32:00,
2013-02-08 11:42:00,28.0,25.0,30.32,NNE,15,4.0,8.0,88,0.00,,,0.53,,2013-02-08 17:42:00,
2013-02-08 11:53:00,29.0,26.0,30.32,NNW,346,3.0,8.0,87,0.00,,,0.53,,2013-02-08 17:53:00,
2013-02-08 12:02:00,29.0,25.0,30.32,North,351,4.0,8.0,86,0.00,,,0.49,,2013-02-08 18:02:00,
2013-02-08 12:12:00,29.0,25.0,30.32,North,351,4.0,8.0,86,0.00,,,0.49,,2013-02-08 18:12:00,
2013-02-08 12:24:00,29.0,25.0,30.32,NNW,347,4.0,8.0,86,0.00,,,0.49,,2013-02-08 18:24:00,
2013-02-08 12:34:00,29.0,26.0,30.32,North,351,3.0,9.0,87,0.00,,,0.49,,2013-02-08 18:34:00,
2013-02-08 12:43:00,29.0,26.0,30.32,North,351,3.0,9.0,87,0.00,,,0.49,,2013-02-08 18:43:00,
2013-02-08 12:52:00,29.0,25.0,30.32,North,360,4.0,8.0,86,0.00,,,0.49,,2013-02-08 18:52:00,
2013-02-08 13:02:00,30.0,26.0,30.33,North,351,2.0,9.0,86,0.00,,,0.42,,2013-02-08 19:02:00,
2013-02-08 13:11:00,30.0,26.0,30.33,North,351,2.0,9.0,86,0.00,,,0.42,,2013-02-08 19:11:00,
2013-02-08 13:22:00,30.0,27.0,30.32,North,351,2.0,8.0,87,0.00,,,0.42,,2013-02-08 19:22:00,
2013-02-08 13:32:00,30.0,26.0,30.32,North,355,3.0,7.0,85,0.00,,,0.42,,2013-02-08 19:32:00,
2013-02-08 13:42:00,30.0,26.0,30.32,North,355,3.0,7.0,85,0.00,,,0.42,,2013-02-08 19:42:00,
2013-02-08 13:52:00,30.0,26.0,30.32,North,355,2.0,7.0,86,0.00,,,0.42,,2013-02-08 19:52:00,
2013-02-08 14:02:00,29.0,25.0,30.33,North,350,2.0,9.0,86,0.00,,,0.32,,2013-02-08 20:02:00,
2013-02-08 14:11:00,29.0,25.0,30.33,North,350,2.0,9.0,86,0.00,,,0.32,,2013-02-08 20:11:00,
2013-02-08 14:22:00,29.0,26.0,30.33,North,360,2.0,5.0,87,0.00,,,0.32,,2013-02-08 20:22:00,
2013-02-08 14:32:00,29.0,26.0,30.34,NNW,346,3.0,7.0,87,0.00,,,0.32,,2013-02-08 20:32:00,
2013-02-08 14:42:00,29.0,26.0,30.34,NNW,346,3.0,7.0,87,0.00,,,0.32,,2013-02-08 20:42:00,
2013-02-08 14:52:00,29.0,26.0,30.33,North,350,2.0,5.0,88,0.00,,,0.32,,2013-02-08 20:52:00,
2013-02-08 15:02:00,28.0,25.0,30.34,North,355,2.0,6.0,87,0.00,,,0.22,,2013-02-08 21:02:00,
2013-02-08 15:11:00,28.0,25.0,30.34,North,355,2.0,6.0,87,0.00,,,0.22,,2013-02-08 21:11:00,
2013-02-08 15:22:00,28.0,25.0,30.34,North,350,2.0,5.0,87,0.00,,,0.22,,2013-02-08 21:22:00,
2013-02-08 15:32:00,28.0,25.0,30.35,North,5,2.0,4.0,88,0.00,,,0.22,,2013-02-08 21:32:00,
2013-02-08 15:42:00,28.0,25.0,30.35,North,5,2.0,4.0,88,0.00,,,0.22,,2013-02-08 21:42:00,
2013-02-08 15:52:00,28.0,25.0,30.35,NNE,31,1.0,5.0,88,0.00,,,0.22,,2013-02-08 21:52:00,
2013-02-08 16:01:00,28.0,25.0,30.35,North,5,1.0,4.0,88,0.00,,,0.12,,2013-02-08 22:01:00,
2013-02-08 16:11:00,28.0,25.0,30.35,North,5,1.0,4.0,88,0.00,,,0.12,,2013-02-08 22:11:00,
2013-02-08 16:22:00,28.0,25.0,30.35,NNW,345,2.0,4.0,87,0.00,,,0.12,,2013-02-08 22:22:00,
2013-02-08 16:32:00,27.0,24.0,30.36,North,350,1.0,5.0,88,0.00,,,0.12,,2013-02-08 22:32:00,
2013-02-08 16:42:00,27.0,24.0,30.36,North,350,1.0,5.0,88,0.00,,,0.12,,2013-02-08 22:42:00,
2013-02-08 16:52:00,27.0,24.0,30.36,North,350,2.0,5.0,89,0.00,,,0.12,,2013-02-08 22:52:00,
2013-02-08 17:01:00,27.0,24.0,30.37,North,5,1.0,4.0,89,0.00,,,0.04,,2013-02-08 23:01:00,
2013-02-08 17:11:00,27.0,24.0,30.37,North,5,1.0,4.0,89,0.00,,,0.04,,2013-02-08 23:11:00,
2013-02-08 17:21:00,27.0,24.0,30.37,NNW,345,2.0,5.0,89,0.00,,,0.04,,2013-02-08 23:21:00,
2013-02-08 17:32:00,27.0,24.0,30.37,North,11,2.0,5.0,89,0.00,,,0.04,,2013-02-08 23:32:00,
2013-02-08 17:42:00,27.0,24.0,30.37,North,11,2.0,5.0,89,0.00,,,0.04,,2013-02-08 23:42:00,
2013-02-08 17:52:00,27.0,24.0,30.38,NNW,339,0.0,3.0,88,0.00,,,0.04,,2013-02-08 23:52:00,
2013-02-08 18:02:00,27.0,24.0,30.38,NW,317,1.0,4.0,88,0.00,,,0.01,,2013-02-09 00:02:00,
2013-02-08 18:11:00,27.0,24.0,30.38,NW,317,1.0,4.0,88,0.00,,,0.01,,2013-02-09 00:11:00,
2013-02-08 18:21:00,27.0,24.0,30.38,NNE,14,1.0,4.0,89,0.00,,,0.01,,2013-02-09 00:21:00,
2013-02-08 18:32:00,27.0,24.0,30.38,NNE,14,1.0,4.0,89,0.00,,,0.01,,2013-02-09 00:32:00,
2013-02-08 18:42:00,27.0,24.0,30.38,NNE,14,1.0,4.0,89,0.00,,,0.01,,2013-02-09 00:42:00,
2013-02-08 18:52:00,26.0,23.0,30.39,North,10,2.0,5.0,89,0.00,,,0.01,,2013-02-09 00:52:00,
2013-02-08 19:01:00,26.0,23.0,30.39,North,10,2.0,5.0,89,0.00,,,0.01,,2013-02-09 01:01:00,
2013-02-08 19:11:00,26.0,23.0,30.39,North,10,2.0,5.0,89,0.00,,,0.01,,2013-02-09 01:11:00,
2013-02-08 19:21:00,26.0,23.0,30.38,North,5,1.0,4.0,89,0.00,,,0.01,,2013-02-09 01:21:00,
2013-02-08 19:32:00,26.0,23.0,30.39,North,360,1.0,3.0,89,0.00,,,0.01,,2013-02-09 01:32:00,
2013-02-08 19:42:00,26.0,23.0,30.39,North,360,1.0,3.0,89,0.00,,,0.01,,2013-02-09 01:42:00,
2013-02-08 19:52:00,26.0,23.0,30.40,NNE,22,0.0,2.0,90,0.00,,,0.01,,2013-02-09 01:52:00,
2013-02-08 20:01:00,26.0,23.0,30.40,NNE,22,0.0,2.0,90,0.00,,,0.01,,2013-02-09 02:01:00,
2013-02-08 20:11:00,26.0,23.0,30.40,NNE,22,0.0,2.0,90,0.00,,,0.01,,2013-02-09 02:11:00,
2013-02-08 20:21:00,26.0,23.0,30.38,NE,39,0.0,1.0,90,0.00,,,0.01,,2013-02-09 02:21:00,
2013-02-08 20:32:00,26.0,23.0,30.38,NE,39,0.0,1.0,90,0.00,,,0.01,,2013-02-09 02:32:00,
2013-02-08 20:42:00,26.0,23.0,30.38,NE,39,0.0,1.0,90,0.00,,,0.01,,2013-02-09 02:42:00,
2013-02-08 20:52:00,26.0,23.0,30.39,NNE,19,0.0,2.0,90,0.00,,,0.01,,2013-02-09 02:52:00,
2013-02-08 21:02:00,26.0,23.0,30.40,NNE,19,0.0,0.0,90,0.00,,,0.01,,2013-02-09 03:02:00,
2013-02-08 21:11:00,26.0,23.0,30.40,NNE,19,0.0,0.0,90,0.00,,,0.01,,2013-02-09 03:11:00,
2013-02-08 21:21:00,26.0,23.0,30.40,NNE,26,0.0,1.0,90,0.00,,,0.01,,2013-02-09 03:21:00,
2013-02-08 21:32:00,26.0,23.0,30.40,NNE,26,0.0,1.0,90,0.00,,,0.01,,2013-02-09 03:32:00,
2013-02-08 21:42:00,26.0,23.0,30.40,NNE,26,0.0,1.0,90,0.00,,,0.01,,2013-02-09 03:42:00,
2013-02-08 21:52:00,26.0,23.0,30.40,East,98,0.0,0.0,89,0.00,,,0.01,,2013-02-09 03:52:00,
2013-02-08 22:02:00,26.0,23.0,30.40,SSE,160,0.0,3.0,89,0.00,,,0.01,,2013-02-09 04:02:00,
2013-02-08 22:12:00,26.0,23.0,30.40,SSE,160,0.0,3.0,89,0.00,,,0.01,,2013-02-09 04:12:00,
2013-02-08 22:23:00,26.0,23.0,30.40,SSE,160,0.0,3.0,89,0.00,,,0.01,,2013-02-09 04:23:00,
2013-02-08 22:32:00,26.0,23.0,30.39,SSE,160,0.0,1.0,90,0.00,,,0.01,,2013-02-09 04:32:00,
2013-02-08 22:42:00,26.0,23.0,30.39,SSE,160,0.0,1.0,90,0.00,,,0.01,,2013-02-09 04:42:00,
2013-02-08 22:52:00,26.0,23.0,30.39,SSE,160,0.0,1.0,90,0.00,,,0.01,,2013-02-09 04:52:00,
2013-02-08 23:02:00,26.0,23.0,30.39,SSE,160,0.0,0.0,90,0.00,,,0.01,,2013-02-09 05:02:00,
2013-02-08 23:12:00,26.0,23.0,30.39,SSE,160,0.0,0.0,90,0.00,,,0.01,,2013-02-09 05:12:00,
2013-02-08 23:22:00,26.0,23.0,30.40,SSE,158,0.0,3.0,90,0.00,,,0.00,,2013-02-09 05:22:00,
2013-02-08 23:32:00,26.0,23.0,30.40,SE,134,0.0,3.0,90,0.00,,,0.00,,2013-02-09 05:32:00,
2013-02-08 23:42:00,26.0,23.0,30.40,SE,134,0.0,3.0,90,0.00,,,0.00,,2013-02-09 05:42:00,
2013-02-08 23:52:00,26.0,23.0,30.40,ESE,103,0.0,1.0,90,0.00,,,0.00,,2013-02-09 05:52:00,